TimeEST,TemperatureF,Dew PointF,Humidity,Sea Level PressureIn,VisibilityMPH,Wind Direction,Wind SpeedMPH,Gust SpeedMPH,PrecipitationIn,Events,Conditions,WindDirDegrees,DateUTC
12:53 AM,44.1,35.1,71,30.23,10.0,Calm,Calm,-,N/A,,Overcast,0,2012-12-07 05:53:00
1:12 AM,44.6,35.6,71,30.22,10.0,Calm,Calm,-,N/A,,Overcast,0,2012-12-07 06:12:00
1:38 AM,44.6,35.6,71,30.22,10.0,NE,4.6,-,N/A,,Overcast,40,2012-12-07 06:38:00
1:53 AM,44.1,35.1,71,30.22,10.0,NE,4.6,-,N/A,,Overcast,50,2012-12-07 06:53:00
2:16 AM,44.6,35.6,71,30.21,10.0,NE,4.6,-,N/A,,Overcast,40,2012-12-07 07:16:00
2:53 AM,44.1,36.0,73,30.21,10.0,NNE,6.9,-,N/A,,Overcast,30,2012-12-07 07:53:00
3:53 AM,44.1,36.0,73,30.19,10.0,NNE,8.1,-,N/A,,Overcast,20,2012-12-07 08:53:00
4:53 AM,44.1,36.0,73,30.19,10.0,NE,3.5,-,N/A,,Overcast,50,2012-12-07 09:53:00
5:53 AM,44.1,37.0,76,30.19,10.0,NE,4.6,-,N/A,,Overcast,40,2012-12-07 10:53:00
6:53 AM,44.1,37.0,76,30.19,10.0,North,4.6,-,N/A,,Overcast,360,2012-12-07 11:53:00
7:53 AM,45.0,37.0,74,30.19,10.0,North,5.8,-,N/A,,Overcast,360,2012-12-07 12:53:00
8:53 AM,48.0,39.0,71,30.18,10.0,NE,3.5,-,N/A,,Overcast,50,2012-12-07 13:53:00
9:53 AM,50.0,41.0,71,30.17,10.0,ENE,4.6,-,N/A,,Overcast,60,2012-12-07 14:53:00
10:53 AM,52.0,43.0,71,30.16,10.0,Calm,Calm,-,N/A,,Overcast,0,2012-12-07 15:53:00
11:53 AM,55.0,44.1,67,30.12,10.0,Calm,Calm,-,N/A,,Overcast,0,2012-12-07 16:53:00
12:53 PM,57.0,46.0,67,30.09,10.0,NE,4.6,-,N/A,,Overcast,40,2012-12-07 17:53:00
1:53 PM,59.0,46.9,64,30.07,10.0,Calm,Calm,-,N/A,,Overcast,0,2012-12-07 18:53:00
2:53 PM,60.1,48.9,67,30.05,10.0,Calm,Calm,-,N/A,,Overcast,0,2012-12-07 19:53:00
3:32 PM,60.8,50.0,68,30.04,10.0,Calm,Calm,-,N/A,,Overcast,0,2012-12-07 20:32:00
3:53 PM,62.1,51.1,67,30.04,10.0,Calm,Calm,-,N/A,,Overcast,0,2012-12-07 20:53:00
4:53 PM,60.1,52.0,75,30.03,10.0,NNE,3.5,-,N/A,,Overcast,30,2012-12-07 21:53:00
5:53 PM,57.9,51.1,78,30.03,10.0,NNE,3.5,-,N/A,,Overcast,20,2012-12-07 22:53:00
6:53 PM,57.9,51.1,78,30.03,10.0,Calm,Calm,-,N/A,,Overcast,0,2012-12-07 23:53:00
7:03 PM,57.2,51.8,82,30.03,10.0,Calm,Calm,-,N/A,,Overcast,0,2012-12-08 00:03:00
7:38 PM,57.2,51.8,82,30.03,10.0,Calm,Calm,-,N/A,,Overcast,0,2012-12-08 00:38:00
8:06 PM,57.2,50.0,77,30.02,10.0,Calm,Calm,-,N/A,,Overcast,0,2012-12-08 01:06:00
8:53 PM,57.9,51.1,78,30.01,10.0,Calm,Calm,-,N/A,,Overcast,0,2012-12-08 01:53:00
9:53 PM,57.9,51.1,78,30.00,10.0,Calm,Calm,-,N/A,,Overcast,0,2012-12-08 02:53:00
10:53 PM,57.0,51.1,81,30.01,10.0,NNW,3.5,-,N/A,,Overcast,330,2012-12-08 03:53:00
11:53 PM,55.9,51.1,84,29.99,10.0,NNW,3.5,-,N/A,,Overcast,340,2012-12-08 04:53:00